QPF
0.03 0.04 0.04 0.03 0.03 0.03 0.03 0.03 0.02 0.02 0.02 0.03 0.04 0.03 0.04 0.06 0.06 0.03 0.04 0.04 0.05 0.06 0.07 0.05 0.04 0.04 0.04 0.06 0.05 0.04 0.05 0.06 0.09 0.09 0.08 0.09 0.08 0.08 0.05 0.04 0.03 0.04 0.05
0.03 0.06 0.10 0.04 0.03 0.04 0.04 0.04 0.03 0.03 0.03 0.04 0.04 0.04 0.04 0.05 0.06 0.04 0.05 0.05 0.06 0.05 0.06 0.05 0.04 0.04 0.04 0.04 0.05 0.06 0.05 0.05 0.06 0.07 0.07 0.08 0.09 0.10 0.09 0.08 0.07 0.05 0.04
0.02 0.02 0.06 0.04 0.03 0.02 0.02 0.03 0.04 0.04 0.04 0.04 0.04 0.03 0.04 0.05 0.08 0.06 0.07 0.07 0.07 0.06 0.06 0.06 0.05 0.05 0.05 0.05 0.05 0.06 0.04 0.03 0.04 0.05 0.05 0.05 0.06 0.09 0.11 0.14 0.14 0.08 0.04
0.01 0.02 0.02 0.02 0.02 0.01 0.02 0.03 0.03 0.03 0.04 0.05 0.05 0.04 0.05 0.06 0.09 0.08 0.07 0.09 0.09 0.07 0.08 0.07 0.06 0.08 0.08 0.07 0.06 0.05 0.06 0.04 0.03 0.03 0.03 0.04 0.04 0.05 0.07 0.08 0.10 0.08 0.06
0.01 0.03 0.02 0.02 0.02 0.02 0.04 0.04 0.03 0.04 0.04 0.05 0.06 0.08 0.08 0.06 0.08 0.10 0.10 0.11 0.10 0.09 0.11 0.10 0.08 0.08 0.09 0.09 0.07 0.06 0.06 0.05 0.05 0.05 0.05 0.05 0.05 0.06 0.06 0.07 0.06 0.06 0.06
0.02 0.03 0.03 0.02 0.02 0.02 0.03 0.04 0.04 0.05 0.04 0.04 0.07 0.13 0.14 0.12 0.11 0.12 0.12 0.12 0.12 0.11 0.12 0.11 0.10 0.10 0.08 0.07 0.07 0.08 0.09 0.09 0.07 0.06 0.06 0.07 0.08 0.08 0.08 0.09 0.07 0.06 0.04
0.03 0.05 0.03 0.02 0.02 0.01 0.02 0.02 0.02 0.04 0.06 0.06 0.06 0.11 0.18 0.19 0.17 0.15 0.13 0.13 0.13 0.11 0.12 0.12 0.12 0.11 0.06 0.07 0.08 0.09 0.12 0.11 0.10 0.09 0.09 0.10 0.11 0.09 0.08 0.08 0.08 0.06 0.04
0.03 0.04 0.02 0.02 0.01 0.01 0.02 0.03 0.03 0.02 0.04 0.07 0.10 0.10 0.12 0.17 0.20 0.18 0.16 0.14 0.14 0.12 0.11 0.11 0.09 0.10 0.10 0.06 0.06 0.08 0.11 0.10 0.11 0.10 0.11 0.10 0.09 0.09 0.08 0.07 0.07 0.05 0.03
0.04 0.02 0.01 0.01 0.01 0.01 0.02 0.02 0.02 0.01 0.02 0.04 0.07 0.09 0.09 0.13 0.17 0.19 0.18 0.14 0.13 0.13 0.11 0.09 0.09 0.12 0.12 0.09 0.07 0.08 0.08 0.10 0.12 0.13 0.12 0.12 0.11 0.10 0.10 0.09 0.08 0.07 0.05
0.03 0.02 0.01 0.01 0.01 0.01 0.02 0.03 0.04 0.03 0.02 0.02 0.03 0.05 0.07 0.09 0.10 0.12 0.14 0.12 0.09 0.10 0.10 0.10 0.11 0.13 0.12 0.13 0.12 0.11 0.11 0.11 0.08 0.08 0.12 0.13 0.13 0.10 0.08 0.08 0.07 0.07 0.06
0.03 0.03 0.02 0.01 0.01 0.01 0.02 0.03 0.04 0.04 0.03 0.03 0.03 0.04 0.05 0.07 0.07 0.07 0.08 0.08 0.07 0.07 0.08 0.13 0.13 0.09 0.08 0.10 0.09 0.10 0.11 0.09 0.07 0.06 0.07 0.07 0.08 0.07 0.07 0.07 0.08 0.07 0.06
0.01 0.02 0.02 0.01 0.01 0.01 0.02 0.03 0.03 0.03 0.03 0.03 0.04 0.04 0.04 0.06 0.06 0.07 0.06 0.05 0.05 0.05 0.07 0.10 0.08 0.08 0.06 0.05 0.05 0.05 0.06 0.07 0.07 0.07 0.06 0.05 0.05 0.06 0.06 0.07 0.09 0.09 0.08
0.01 0.01 0.02 0.01 0.01 0.01 0.01 0.01 0.01 0.02 0.02 0.03 0.03 0.04 0.05 0.06 0.06 0.07 0.08 0.07 0.05 0.04 0.04 0.03 0.04 0.05 0.04 0.04 0.04 0.04 0.06 0.06 0.06 0.06 0.05 0.04 0.03 0.04 0.06 0.07 0.10 0.12 0.09
0.01 0.01 0.01 0.01 0.01 0.01 0.01 0.01 0.01 0.01 0.02 0.04 0.03 0.02 0.03 0.06 0.06 0.07 0.08 0.09 0.07 0.04 0.02 0.02 0.02 0.03 0.04 0.05 0.05 0.05 0.06 0.07 0.07 0.05 0.03 0.03 0.02 0.01 0.02 0.04 0.07 0.07 0.06
0.02 0.02 0.02 0.01 0.01 0.01 0.01 0.01 0.01 0.01 0.01 0.02 0.02 0.01 0.02 0.04 0.05 0.05 0.05 0.07 0.07 0.06 0.04 0.03 0.03 0.03 0.03 0.06 0.07 0.06 0.05 0.07 0.07 0.05 0.03 0.02 0.01 0.01 0.01 0.02 0.02 0.03 0.05
0.02 0.02 0.02 0.02 0.01 0.01 0.01 0.01 0.01 0.01 0.01 0.01 0.01 0.01 0.01 0.01 0.03 0.03 0.03 0.05 0.08 0.09 0.06 0.03 0.02 0.02 0.02 0.03 0.05 0.05 0.05 0.06 0.06 0.05 0.04 0.03 0.02 0.02 0.02 0.02 0.02 0.03 0.04
0.04 0.04 0.03 0.03 0.02 0.01 0.01 0.01 0.01 0.01 0.01 0.01 0.01 0.01 0.01 0.01 0.02 0.03 0.05 0.06 0.07 0.07 0.04 0.02 0.02 0.02 0.02 0.02 0.04 0.05 0.04 0.04 0.04 0.04 0.03 0.02 0.02 0.02 0.02 0.01 0.01 0.02 0.02
0.05 0.03 0.03 0.03 0.02 0.01 0.01 0.01 0.01 0.01 0.01 0.01 0.01 0.01 0.01 0.02 0.02 0.03 0.05 0.05 0.04 0.04 0.03 0.02 0.02 0.02 0.01 0.01 0.03 0.03 0.03 0.04 0.04 0.04 0.04 0.03 0.02 0.02 0.02 0.02 0.02 0.02 0.02
0.02 0.02 0.02 0.02 0.02 0.01 0.01 0.01 0.01 0.01 0.01 0.01 0.01 0.02 0.02 0.02 0.02 0.02 0.03 0.04 0.05 0.04 0.04 0.03 0.03 0.02 0.02 0.02 0.02 0.02 0.02 0.03 0.03 0.03 0.03 0.03 0.02 0.01 0.02 0.02 0.03 0.03 0.05
0.01 0.01 0.02 0.02 0.02 0.02 0.02 0.02 0.02 0.02 0.01 0.01 0.02 0.02 0.01 0.01 0.02 0.03 0.02 0.02 0.02 0.03 0.03 0.04 0.05 0.04 0.03 0.03 0.04 0.03 0.02 0.02 0.03 0.03 0.02 0.02 0.02 0.02 0.02 0.02 0.03 0.03 0.04
0.01 0.01 0.02 0.02 0.02 0.02 0.03 0.03 0.05 0.03 0.02 0.02 0.01 0.01 0.02 0.01 0.02 0.02 0.02 0.01 0.02 0.02 0.02 0.02 0.03 0.03 0.02 0.02 0.03 0.04 0.04 0.03 0.02 0.02 0.01 0.01 0.01 0.01 0.01 0.02 0.02 0.02 0.04
0.01 0.01 0.01 0.02 0.03 0.04 0.06 0.07 0.07 0.04 0.02 0.01 0.01 0.02 0.02 0.01 0.01 0.02 0.02 0.02 0.03 0.03 0.03 0.03 0.03 0.02 0.02 0.01 0.01 0.01 0.02 0.02 0.01 0.01 0.01 0.01 0.01 0.01 0.01 0.01 0.02 0.03 0.05
0.02 0.01 0.02 0.02 0.02 0.04 0.07 0.07 0.07 0.05 0.03 0.02 0.02 0.02 0.01 0.01 0.01 0.01 0.02 0.03 0.03 0.03 0.03 0.03 0.03 0.02 0.02 0.02 0.02 0.01 0.01 0.01 0.01 0.02 0.02 0.01 0.01 0.01 0.01 0.02 0.04 0.04 0.04
0.03 0.04 0.03 0.02 0.02 0.02 0.05 0.05 0.05 0.06 0.08 0.06 0.04 0.02 0.01 0.01 0.01 0.02 0.02 0.02 0.03 0.03 0.02 0.02 0.02 0.02 0.02 0.03 0.03 0.02 0.02 0.01 0.01 0.01 0.02 0.01 0.01 0.02 0.02 0.02 0.04 0.05 0.03
0.08 0.06 0.04 0.03 0.02 0.02 0.03 0.05 0.07 0.09 0.08 0.05 0.03 0.03 0.02 0.01 0.02 0.02 0.02 0.02 0.02 0.02 0.04 0.05 0.06 0.05 0.03 0.02 0.02 0.03 0.02 0.02 0.01 0.01 0.03 0.02 0.01 0.01 0.02 0.02 0.02 0.02 0.02
0.04 0.04 0.04 0.03 0.03 0.03 0.03 0.04 0.05 0.06 0.06 0.04 0.03 0.02 0.03 0.03 0.03 0.03 0.02 0.02 0.02 0.02 0.03 0.03 0.03 0.02 0.01 0.01 0.02 0.03 0.03 0.03 0.03 0.01 0.02 0.03 0.03 0.03 0.02 0.02 0.02 0.02 0.01
MSLP
1016.31 1016.39 1016.40 1016.38 1016.35 1016.34 1016.38 1016.47 1016.62 1016.79 1016.98 1017.14 1017.26 1017.34 1017.37 1017.35 1017.32 1017.27 1017.22 1017.17 1017.13 1017.09 1017.05 1017.01 1016.97 1016.92 1016.84 1016.74 1016.60 1016.43 1016.21 1015.98 1015.76 1015.57 1015.47 1015.46 1015.56 1015.76 1016.04 1016.36 1016.68 1016.96 1017.19
1016.37 1016.46 1016.51 1016.52 1016.53 1016.57 1016.65 1016.80 1017.00 1017.24 1017.48 1017.71 1017.88 1017.99 1018.01 1017.97 1017.87 1017.74 1017.59 1017.45 1017.33 1017.25 1017.20 1017.18 1017.17 1017.14 1017.07 1016.93 1016.70 1016.39 1016.00 1015.58 1015.16 1014.82 1014.60 1014.53 1014.64 1014.90 1015.29 1015.74 1016.20 1016.62 1016.97
1016.49 1016.56 1016.60 1016.64 1016.69 1016.77 1016.90 1017.09 1017.34 1017.64 1017.94 1018.22 1018.44 1018.58 1018.62 1018.57 1018.43 1018.24 1018.02 1017.81 1017.64 1017.53 1017.47 1017.46 1017.47 1017.45 1017.35 1017.15 1016.81 1016.34 1015.77 1015.14 1014.53 1014.02 1013.68 1013.55 1013.66 1013.98 1014.47 1015.05 1015.66 1016.22 1016.69
1016.66 1016.69 1016.73 1016.78 1016.85 1016.97 1017.14 1017.38 1017.67 1018.00 1018.34 1018.66 1018.92 1019.09 1019.17 1019.13 1018.99 1018.79 1018.54 1018.30 1018.10 1017.97 1017.90 1017.88 1017.87 1017.82 1017.68 1017.39 1016.93 1016.31 1015.56 1014.74 1013.96 1013.30 1012.85 1012.67 1012.77 1013.13 1013.70 1014.40 1015.13 1015.81 1016.38
1016.88 1016.87 1016.90 1016.95 1017.06 1017.21 1017.41 1017.67 1017.97 1018.32 1018.67 1019.01 1019.31 1019.52 1019.64 1019.64 1019.55 1019.37 1019.14 1018.91 1018.71 1018.56 1018.47 1018.43 1018.38 1018.28 1018.06 1017.68 1017.10 1016.35 1015.45 1014.49 1013.57 1012.80 1012.27 1012.04 1012.13 1012.52 1013.14 1013.91 1014.72 1015.48 1016.12
1017.10 1017.06 1017.08 1017.15 1017.28 1017.46 1017.69 1017.95 1018.26 1018.59 1018.93 1019.27 1019.57 1019.82 1019.99 1020.06 1020.04 1019.94 1019.78 1019.59 1019.42 1019.27 1019.17 1019.08 1018.98 1018.80 1018.50 1018.03 1017.36 1016.50 1015.51 1014.47 1013.48 1012.65 1012.07 1011.81 1011.89 1012.27 1012.91 1013.69 1014.53 1015.31 1015.98
1017.27 1017.22 1017.24 1017.34 1017.50 1017.71 1017.94 1018.20 1018.48 1018.77 1019.07 1019.38 1019.68 1019.95 1020.17 1020.33 1020.42 1020.42 1020.36 1020.26 1020.14 1020.02 1019.91 1019.78 1019.62 1019.37 1019.00 1018.45 1017.72 1016.83 1015.81 1014.75 1013.74 1012.91 1012.33 1012.06 1012.12 1012.48 1013.08 1013.83 1014.63 1015.39 1016.03
1017.37 1017.31 1017.36 1017.49 1017.68 1017.91 1018.14 1018.37 1018.60 1018.82 1019.06 1019.31 1019.59 1019.87 1020.15 1020.40 1020.61 1020.74 1020.81 1020.83 1020.79 1020.71 1020.61 1020.46 1020.26 1019.96 1019.54 1018.96 1018.22 1017.33 1016.35 1015.33 1014.39 1013.60 1013.05 1012.78 1012.82 1013.13 1013.67 1014.33 1015.05 1015.72 1016.29
1017.37 1017.33 1017.40 1017.56 1017.78 1018.01 1018.24 1018.43 1018.58 1018.73 1018.88 1019.07 1019.30 1019.58 1019.90 1020.23 1020.55 1020.83 1021.04 1021.18 1021.25 1021.25 1021.18 1021.04 1020.83 1020.52 1020.08 1019.52 1018.82 1018.00 1017.11 1016.20 1015.35 1014.65 1014.16 1013.91 1013.92 1014.17 1014.61 1015.16 1015.75 1016.30 1016.76
1017.31 1017.28 1017.37 1017.56 1017.79 1018.02 1018.22 1018.36 1018.44 1018.50 1018.56 1018.66 1018.84 1019.10 1019.44 1019.84 1020.25 1020.65 1021.01 1021.28 1021.46 1021.56 1021.56 1021.47 1021.28 1021.00 1020.61 1020.10 1019.49 1018.78 1018.02 1017.25 1016.53 1015.94 1015.51 1015.29 1015.27 1015.45 1015.78 1016.19 1016.64 1017.06 1017.40
1017.22 1017.20 1017.31 1017.50 1017.73 1017.94 1018.10 1018.19 1018.20 1018.17 1018.14 1018.16 1018.28 1018.50 1018.84 1019.27 1019.76 1020.26 1020.72 1021.12 1021.42 1021.62 1021.71 1021.70 1021.59 1021.38 1021.07 1020.66 1020.17 1019.60 1018.98 1018.36 1017.78 1017.30 1016.94 1016.74 1016.70 1016.80 1017.02 1017.31 1017.62 1017.91 1018.14
1017.15 1017.13 1017.22 1017.40 1017.61 1017.80 1017.92 1017.96 1017.91 1017.81 1017.71 1017.66 1017.71 1017.89 1018.20 1018.64 1019.15 1019.71 1020.25 1020.75 1021.15 1021.46 1021.66 1021.76 1021.75 1021.64 1021.45 1021.17 1020.80 1020.38 1019.91 1019.43 1018.98 1018.59 1018.29 1018.11 1018.05 1018.09 1018.22 1018.40 1018.60 1018.78 1018.92
1017.09 1017.06 1017.13 1017.28 1017.46 1017.62 1017.71 1017.71 1017.62 1017.48 1017.33 1017.23 1017.23 1017.36 1017.63 1018.04 1018.55 1019.11 1019.69 1020.24 1020.73 1021.13 1021.44 1021.65 1021.77 1021.79 1021.73 1021.58 1021.36 1021.07 1020.74 1020.38 1020.03 1019.72 1019.47 1019.31 1019.22 1019.22 1019.29 1019.39 1019.51 1019.62 1019.70
1017.04 1016.98 1017.02 1017.14 1017.28 1017.40 1017.47 1017.46 1017.36 1017.22 1017.06 1016.94 1016.90 1016.99 1017.21 1017.56 1018.02 1018.56 1019.13 1019.69 1020.22 1020.70 1021.10 1021.43 1021.67 1021.83 1021.90 1021.90 1021.80 1021.64 1021.42 1021.16 1020.89 1020.64 1020.43 1020.28 1020.20 1020.18 1020.20 1020.27 1020.34 1020.41 1020.46
1016.92 1016.84 1016.85 1016.93 1017.04 1017.15 1017.21 1017.21 1017.14 1017.03 1016.89 1016.78 1016.74 1016.80 1016.96 1017.25 1017.63 1018.10 1018.63 1019.17 1019.71 1020.23 1020.71 1021.13 1021.49 1021.78 1021.99 1022.11 1022.13 1022.08 1021.95 1021.77 1021.57 1021.36 1021.19 1021.06 1020.99 1020.96 1020.99 1021.04 1021.10 1021.16 1021.20
1016.67 1016.59 1016.57 1016.63 1016.72 1016.82 1016.90 1016.94 1016.92 1016.87 1016.79 1016.73 1016.70 1016.74 1016.87 1017.08 1017.38 1017.77 1018.21 1018.70 1019.22 1019.76 1020.28 1020.79 1021.25 1021.66 1021.98 1022.22 1022.35 1022.39 1022.34 1022.23 1022.08 1021.92 1021.79 1021.69 1021.64 1021.63 1021.67 1021.74 1021.81 1021.88 1021.93
1016.23 1016.15 1016.14 1016.18 1016.27 1016.38 1016.50 1016.59 1016.65 1016.67 1016.68 1016.68 1016.69 1016.73 1016.83 1016.98 1017.21 1017.50 1017.86 1018.28 1018.76 1019.29 1019.84 1020.41 1020.95 1021.45 1021.88 1022.22 1022.45 1022.57 1022.60 1022.56 1022.47 1022.36 1022.27 1022.21 1022.20 1022.23 1022.30 1022.39 1022.48 1022.56 1022.61
1015.58 1015.53 1015.53 1015.59 1015.69 1015.83 1015.98 1016.12 1016.25 1016.36 1016.45 1016.52 1016.58 1016.65 1016.73 1016.85 1017.01 1017.22 1017.51 1017.86 1018.30 1018.80 1019.37 1019.97 1020.58 1021.15 1021.67 1022.10 1022.42 1022.63 1022.74 1022.77 1022.74 1022.70 1022.67 1022.66 1022.70 1022.77 1022.87 1022.98 1023.08 1023.17 1023.23
1014.76 1014.76 1014.80 1014.88 1015.00 1015.16 1015.34 1015.52 1015.71 1015.88 1016.03 1016.17 1016.28 1016.38 1016.47 1016.57 1016.69 1016.85 1017.08 1017.39 1017.78 1018.27 1018.83 1019.45 1020.10 1020.74 1021.33 1021.83 1022.24 1022.54 1022.73 1022.84 1022.90 1022.93 1022.96 1023.02 1023.10 1023.21 1023.34 1023.47 1023.59 1023.68 1023.73
1013.86 1013.92 1014.00 1014.11 1014.25 1014.41 1014.59 1014.79 1014.99 1015.19 1015.39 1015.56 1015.72 1015.85 1015.96 1016.07 1016.19 1016.33 1016.53 1016.81 1017.18 1017.65 1018.21 1018.84 1019.51 1020.19 1020.83 1021.40 1021.88 1022.26 1022.54 1022.74 1022.88 1023.00 1023.11 1023.23 1023.36 1023.51 1023.67 1023.81 1023.93 1024.02 1024.07
1012.98 1013.11 1013.23 1013.37 1013.50 1013.64 1013.79 1013.96 1014.14 1014.32 1014.52 1014.70 1014.88 1015.05 1015.19 1015.33 1015.47 1015.63 1015.84 1016.12 1016.48 1016.94 1017.49 1018.12 1018.80 1019.50 1020.17 1020.79 1021.33 1021.78 1022.14 1022.43 1022.66 1022.85 1023.04 1023.22 1023.41 1023.60 1023.78 1023.94 1024.07 1024.16 1024.21
1012.25 1012.42 1012.57 1012.70 1012.81 1012.90 1012.99 1013.08 1013.18 1013.31 1013.47 1013.64 1013.82 1014.01 1014.20 1014.38 1014.57 1014.77 1015.01 1015.31 1015.69 1016.14 1016.69 1017.30 1017.97 1018.66 1019.34 1019.98 1020.56 1021.07 1021.50 1021.86 1022.17 1022.45 1022.70 1022.95 1023.19 1023.41 1023.62 1023.81 1023.95 1024.07 1024.15
1011.71 1011.91 1012.06 1012.17 1012.22 1012.22 1012.21 1012.19 1012.19 1012.23 1012.31 1012.44 1012.62 1012.82 1013.05 1013.29 1013.54 1013.81 1014.10 1014.44 1014.83 1015.29 1015.82 1016.41 1017.04 1017.71 1018.37 1019.01 1019.60 1020.14 1020.62 1021.04 1021.42 1021.76 1022.08 1022.39 1022.67 1022.94 1023.19 1023.41 1023.60 1023.76 1023.89
1011.39 1011.58 1011.70 1011.74 1011.71 1011.61 1011.47 1011.33 1011.20 1011.13 1011.13 1011.21 1011.37 1011.58 1011.85 1012.15 1012.47 1012.81 1013.16 1013.54 1013.95 1014.41 1014.91 1015.47 1016.05 1016.67 1017.29 1017.90 1018.49 1019.03 1019.54 1020.00 1020.43 1020.82 1021.20 1021.55 1021.89 1022.21 1022.51 1022.78 1023.03 1023.26 1023.48
1011.21 1011.35 1011.41 1011.37 1011.23 1011.02 1010.75 1010.48 1010.24 1010.07 1009.99 1010.02 1010.16 1010.39 1010.69 1011.05 1011.43 1011.84 1012.25 1012.66 1013.09 1013.54 1014.01 1014.51 1015.04 1015.59 1016.16 1016.72 1017.28 1017.81 1018.32 1018.81 1019.27 1019.70 1020.12 1020.52 1020.91 1021.28 1021.63 1021.97 1022.30 1022.63 1022.95
1011.07 1011.12 1011.09 1010.95 1010.71 1010.39 1010.02 1009.65 1009.31 1009.07 1008.93 1008.93 1009.06 1009.30 1009.64 1010.04 1010.48 1010.93 1011.38 1011.82 1012.25 1012.68 1013.11 1013.56 1014.02 1014.51 1015.01 1015.52 1016.04 1016.56 1017.06 1017.55 1018.03 1018.49 1018.95 1019.38 1019.82 1020.24 1020.65 1021.07 1021.49 1021.91 1022.34
Thickness
5764 5764 5764 5763 5763 5762 5762 5761 5761 5760 5759 5758 5757 5756 5756 5755 5753 5752 5751 5750 5749 5748 5746 5745 5743 5742 5741 5740 5739 5737 5736 5735 5733 5731 5730 5728 5726 5724 5723 5721 5719 5718 5717
5766 5764 5763 5763 5763 5763 5762 5762 5761 5760 5758 5757 5756 5756 5755 5755 5753 5752 5751 5749 5748 5747 5745 5743 5742 5741 5740 5739 5738 5736 5735 5734 5732 5730 5729 5727 5725 5723 5722 5720 5717 5716 5715
5767 5765 5764 5763 5763 5763 5763 5762 5761 5760 5758 5757 5755 5755 5755 5754 5753 5751 5750 5748 5747 5746 5744 5742 5741 5740 5739 5738 5737 5735 5734 5732 5731 5729 5727 5726 5724 5722 5720 5718 5716 5714 5713
5767 5765 5764 5763 5763 5762 5762 5761 5759 5757 5755 5754 5753 5753 5753 5752 5752 5750 5749 5747 5746 5744 5743 5741 5740 5739 5737 5736 5735 5734 5733 5731 5729 5727 5726 5724 5722 5720 5718 5716 5714 5712 5711
5767 5765 5764 5763 5762 5761 5761 5760 5758 5756 5753 5752 5752 5752 5751 5750 5750 5749 5747 5746 5744 5742 5741 5739 5738 5737 5736 5735 5734 5733 5731 5729 5727 5725 5724 5722 5720 5718 5716 5714 5712 5709 5708
5767 5765 5764 5762 5762 5760 5759 5758 5756 5755 5753 5752 5752 5749 5748 5748 5748 5747 5746 5745 5743 5741 5740 5738 5736 5735 5734 5733 5732 5731 5729 5727 5725 5723 5722 5720 5719 5716 5714 5712 5710 5708 5706
5767 5765 5764 5762 5761 5759 5758 5757 5755 5752 5751 5750 5746 5743 5744 5746 5746 5745 5744 5743 5741 5740 5738 5736 5735 5733 5732 5731 5730 5729 5727 5725 5723 5721 5719 5718 5716 5714 5712 5710 5708 5705 5703
5768 5766 5764 5762 5760 5759 5757 5756 5754 5750 5749 5749 5744 5737 5733 5734 5739 5743 5741 5740 5739 5737 5736 5734 5733 5732 5730 5728 5727 5726 5724 5723 5720 5718 5716 5714 5713 5711 5709 5707 5705 5703 5701
5769 5767 5765 5763 5761 5759 5756 5755 5753 5750 5746 5747 5746 5740 5731 5726 5730 5734 5736 5736 5735 5734 5733 5732 5730 5729 5728 5726 5724 5723 5721 5720 5717 5715 5713 5711 5709 5708 5706 5704 5701 5699 5697
5770 5768 5766 5764 5761 5759 5757 5756 5754 5752 5748 5744 5744 5744 5741 5736 5728 5725 5728 5730 5731 5730 5729 5728 5727 5726 5725 5723 5721 5720 5718 5716 5715 5712 5710 5708 5706 5705 5703 5700 5698 5695 5693
5770 5768 5766 5765 5762 5760 5758 5756 5754 5752 5749 5745 5743 5741 5738 5736 5732 5725 5720 5722 5724 5725 5725 5724 5723 5723 5721 5720 5718 5716 5715 5713 5711 5709 5706 5704 5702 5700 5698 5696 5694 5692 5690
5769 5768 5766 5764 5762 5760 5758 5756 5754 5752 5750 5747 5744 5742 5738 5734 5730 5726 5720 5718 5717 5719 5721 5721 5720 5719 5718 5716 5715 5713 5711 5709 5706 5704 5702 5700 5698 5696 5694 5692 5690 5688 5687
5767 5766 5766 5764 5762 5760 5758 5756 5753 5751 5750 5747 5744 5742 5740 5738 5735 5730 5723 5718 5715 5716 5717 5717 5717 5716 5715 5713 5711 5709 5707 5704 5702 5700 5698 5696 5694 5692 5690 5688 5686 5684 5683
5769 5768 5766 5764 5762 5760 5758 5756 5753 5751 5749 5747 5745 5742 5740 5739 5736 5732 5727 5720 5713 5711 5711 5712 5713 5713 5711 5709 5708 5705 5703 5700 5698 5696 5694 5691 5689 5687 5686 5684 5682 5680 5679
5770 5768 5765 5764 5762 5760 5758 5755 5752 5750 5748 5746 5744 5742 5740 5739 5736 5733 5730 5725 5716 5708 5706 5708 5709 5710 5708 5706 5704 5701 5698 5696 5693 5691 5689 5686 5685 5683 5681 5679 5677 5675 5673
5770 5767 5765 5763 5761 5759 5757 5754 5751 5749 5746 5744 5743 5741 5739 5737 5735 5733 5730 5726 5721 5714 5706 5707 5707 5707 5705 5702 5700 5697 5694 5691 5689 5686 5684 5682 5680 5678 5677 5674 5672 5670 5668
5770 5766 5764 5761 5759 5757 5755 5752 5749 5747 5744 5742 5741 5739 5736 5735 5733 5731 5728 5724 5720 5715 5707 5705 5705 5704 5701 5698 5695 5693 5690 5687 5684 5682 5679 5677 5675 5673 5671 5669 5667 5665 5663
5769 5766 5763 5761 5758 5756 5754 5751 5747 5746 5743 5740 5738 5736 5734 5733 5730 5728 5725 5721 5718 5715 5709 5703 5701 5699 5697 5695 5692 5689 5686 5683 5680 5678 5675 5673 5671 5669 5666 5665 5663 5661 5658
5768 5765 5762 5759 5757 5754 5752 5749 5746 5744 5741 5739 5736 5734 5732 5730 5727 5725 5722 5719 5716 5713 5708 5703 5698 5696 5693 5691 5687 5684 5682 5679 5676 5674 5671 5668 5666 5664 5662 5660 5658 5656 5654
5767 5764 5761 5758 5756 5753 5751 5748 5745 5742 5739 5737 5735 5733 5731 5728 5725 5723 5720 5717 5713 5709 5705 5700 5695 5691 5688 5686 5682 5678 5675 5673 5671 5670 5667 5664 5662 5660 5657 5655 5654 5652 5649
5766 5763 5759 5756 5754 5751 5749 5746 5743 5740 5737 5734 5732 5730 5729 5727 5725 5722 5718 5714 5710 5705 5700 5695 5691 5687 5683 5680 5677 5675 5671 5668 5666 5665 5662 5659 5657 5655 5653 5651 5649 5647 5645
5763 5759 5756 5753 5750 5749 5747 5744 5741 5737 5734 5731 5728 5726 5725 5723 5721 5718 5716 5712 5708 5702 5696 5692 5687 5683 5680 5678 5675 5672 5666 5662 5659 5660 5657 5655 5653 5651 5649 5647 5645 5644 5641
5759 5754 5751 5749 5746 5744 5744 5741 5738 5734 5730 5727 5724 5721 5720 5718 5715 5712 5710 5707 5704 5701 5697 5692 5686 5683 5679 5677 5672 5667 5664 5660 5658 5657 5652 5649 5648 5646 5646 5644 5642 5640 5638
5754 5750 5746 5744 5742 5741 5739 5736 5733 5729 5725 5723 5720 5717 5714 5712 5710 5707 5704 5700 5698 5695 5693 5689 5686 5684 5681 5677 5673 5668 5663 5659 5656 5653 5650 5644 5643 5642 5643 5641 5639 5637 5634
5750 5746 5743 5740 5737 5735 5734 5731 5727 5723 5720 5718 5716 5713 5709 5706 5705 5701 5697 5693 5690 5689 5688 5686 5682 5679 5677 5674 5669 5663 5657 5652 5649 5648 5645 5640 5639 5638 5637 5636 5636 5633 5631
5747 5744 5740 5736 5733 5731 5729 5726 5722 5718 5713 5711 5709 5707 5704 5701 5698 5694 5690 5686 5683 5682 5681 5679 5677 5674 5671 5667 5664 5660 5655 5648 5644 5642 5642 5637 5634 5631 5629 5632 5631 5629 5626